Location: Csohesd
(46.2500°N, 22.6167°E)
Time: 06:11:53
(UTC+00:00)

Cosmos 1934 Rocket - Pass Details

Date: 21 October 2021
Orbit: 938 x 999 km, 83.0° (Epoch: 04 December)

Event Time Altitude Azimuth Distance (km) Brightness Sun altitude
Rises 16:16:04 0° 165° (SSE) 3,621 6.9 -8.2°
Reaches altitude 10° 16:18:40 10° 159° (SSE) 2,671 6.2 -8.7°
Maximum altitude 16:24:22 43° 90° (E) 1,303 4.2 -9.6°
Drops below altitude 10° 16:30:02 10° 21° (NNE) 2,665 6.0 -10.6°
Sets 16:32:38 0° 15° (NNE) 3,612 6.8 -11.1°
